Tracking 30701 objects as of 14-Jun-2025
HD Live streaming from Space Station
objects crossing your sky now

STARLINK-4751

Track STARLINK-4751 now!
10-day predictions
STARLINK-4751 is classified as:


NORAD ID: 53825
Int'l Code: 2022-114H
Perigee: 545.7 km
Apogee: 548.1 km
Inclination: 53.2 °
Period: 95.4 minutes
Semi major axis: 6917 km
RCS: Unknown
Launch date: September 19, 2022
Source: United States (US)
Launch site: AIR FORCE EASTERN TEST RANGE (AFETR)
Your satellite tracking list
Your tracking list is empty




NASA's NSSDC Master Catalog

Two Line Element Set (TLE):
1 53825U 22114H   25165.44562355  .00002858  00000-0  19755-3 0  9999
2 53825  53.2199  68.4519 0001762  76.5342 283.5846 15.08842738152336
Source of the keplerian elements: AFSPC